Wind_Speed
42 43 45 48 53 62 46 55 62 57 54 53 47 45 46 46 46 47 48 49 46 45 43 40 41 42 41 38 38 38 40 39 39 42 44 46 48 45 44 42 32 26 25 29
42 42 43 47 51 55 58 50 58 60 54 52 41 41 43 41 42 41 41 41 44 44 41 40 39 37 36 35 34 34 37 37 39 41 43 42 39 37 28 25 26 25 26 23
43 42 41 44 50 54 59 55 65 59 56 51 52 45 47 47 45 44 43 44 42 39 39 41 38 32 30 31 31 32 33 36 39 40 41 35 21 23 26 26 21 21 23 18
41 39 37 43 50 53 57 51 49 47 48 49 50 52 49 51 46 42 41 36 37 40 41 39 33 28 28 27 29 32 32 37 37 38 31 24 17 18 22 22 21 23 21 24
38 34 37 44 50 52 49 41 39 41 42 46 46 44 42 42 38 36 39 38 40 40 32 29 23 26 24 26 29 29 35 33 31 29 23 16 14 15 15 17 16 18 23 21
36 36 39 43 46 48 41 41 40 40 41 42 48 30 35 30 32 40 42 37 33 25 21 21 23 22 25 26 27 31 30 29 24 20 12 9 11 12 12 15 17 20 22 21
37 38 40 39 41 44 40 38 37 37 34 36 38 39 34 33 39 39 30 29 22 22 21 21 20 22 22 24 26 27 25 20 14 13 9 10 12 11 15 19 22 25 26 24
38 38 41 38 38 40 36 37 34 32 37 37 37 40 37 31 36 30 27 25 22 21 17 19 20 18 21 23 24 22 19 13 10 11 11 12 11 11 16 20 18 19 20 19
39 42 42 43 40 33 31 30 32 35 32 32 33 35 29 30 29 26 22 21 21 16 17 18 15 17 19 20 19 17 13 9 9 11 15 16 15 15 17 18 18 19 20 18
41 41 40 38 37 35 37 32 34 33 33 36 30 30 25 23 28 21 21 18 14 16 16 14 15 16 16 16 17 13 11 8 9 11 13 14 14 13 16 16 18 16 16 15
38 36 34 34 36 28 31 35 36 33 31 31 27 24 22 23 24 21 16 15 14 14 13 13 13 13 14 14 13 12 12 10 12 14 15 15 14 15 16 17 13 14 14 12
40 37 30 33 30 33 34 29 28 31 33 29 31 32 34 29 22 18 15 14 13 13 12 11 11 12 14 13 12 14 14 12 12 12 14 15 16 19 20 15 13 12 12 13
32 35 35 34 30 29 28 28 29 32 38 40 37 31 26 20 18 15 13 12 11 10 10 10 11 12 15 13 12 14 15 14 13 12 14 15 15 16 14 14 13 10 13 13
28 30 30 31 30 31 33 34 34 41 39 34 33 27 24 21 17 15 13 11 9 8 9 9 11 15 16 16 13 16 18 18 16 13 11 15 15 15 14 14 12 14 15 14
25 24 26 28 30 33 35 40 43 39 34 30 27 26 21 20 16 13 11 9 8 9 9 10 12 15 18 19 17 18 23 23 19 15 11 13 14 14 15 15 13 16 16 15
23 23 26 29 30 35 40 42 44 37 32 32 26 22 21 17 14 13 10 9 8 8 9 10 13 16 17 18 18 21 26 27 23 19 16 14 14 13 13 14 15 15 16 17
26 29 32 35 41 41 41 38 35 35 27 25 23 21 18 15 13 11 10 9 8 8 10 12 14 17 19 19 19 16 20 26 25 22 21 17 16 13 13 14 16 17 18 19
31 31 36 40 43 44 40 37 32 26 24 22 22 20 17 14 12 10 10 9 8 9 10 13 15 18 19 18 17 11 13 19 23 23 22 18 17 17 15 15 17 18 19 19
36 36 42 46 44 42 36 31 28 26 23 20 17 16 15 14 12 11 9 9 9 10 11 14 17 19 19 19 14 10 10 15 20 22 22 19 17 18 18 17 17 18 19 20
38 39 42 42 40 38 33 31 28 26 24 22 19 16 14 13 12 11 10 10 10 11 13 14 18 21 21 19 16 13 13 15 17 19 20 19 18 20 21 21 21 20 22 22
40 38 38 38 39 36 32 30 30 28 26 23 21 18 15 15 13 12 12 12 12 13 15 15 19 23 22 20 18 14 13 14 15 18 18 19 20 21 23 24 26 26 26 26
37 35 36 37 38 35 33 32 30 27 25 24 21 19 16 16 14 12 12 13 14 15 17 18 21 24 23 20 19 18 17 17 16 16 17 18 20 22 25 27 29 30 31 31
35 38 37 35 38 38 36 34 29 27 24 22 20 18 16 14 13 13 13 14 16 18 19 21 24 25 23 20 20 21 21 23 21 18 18 19 21 23 26 28 30 32 34 34
35 37 38 38 36 35 33 30 28 25 23 23 22 20 16 16 16 16 16 17 18 20 21 24 27 26 23 22 22 22 21 23 23 20 20 21 23 25 27 29 30 32 34 35
34 33 35 33 31 29 29 31 31 29 24 22 21 20 21 19 16 17 18 19 20 21 23 25 27 22 20 16 12 10 7 12 17 20 21 23 24 27 29 29 31 31 32 33
32 32 32 29 27 27 27 29 30 30 27 25 23 21 22 20 19 19 20 20 21 23 25 27 25 17 15 14 13 13 13 17 18 21 24 26 28 31 32 32 32 33 33 33
34 34 31 29 28 28 29 29 30 31 32 28 27 26 23 23 21 21 20 21 23 24 26 28 21 16 17 18 18 21 23 25 25 26 28 31 33 35 37 36 36 38 38 39
Wind_Direction
238 239 237 233 227 223 235 231 229 227 228 231 237 243 241 246 249 250 252 255 259 262 271 269 267 266 269 273 277 282 285 285 287 291 294 297 297 297 298 300 304 301 298 304
235 237 236 231 225 222 226 229 229 229 230 227 227 231 241 240 240 243 252 254 257 264 263 261 263 267 271 274 276 284 284 286 293 295 297 294 292 296 298 303 304 297 293 304
234 238 234 226 219 218 221 231 230 226 224 226 224 229 230 232 242 250 249 251 256 257 258 257 258 262 267 274 277 279 284 292 293 295 294 293 303 305 304 304 306 295 294 285
232 236 226 218 213 209 224 217 227 222 231 230 232 234 237 240 245 248 249 248 250 251 255 256 258 267 272 272 277 285 292 293 296 295 294 299 303 301 296 298 295 295 298 289
229 226 215 213 213 214 215 215 225 224 228 229 229 230 237 238 238 241 241 240 249 251 249 256 263 262 266 276 285 294 290 294 294 292 296 301 307 313 301 297 304 308 310 295
219 213 211 211 209 208 206 222 221 220 224 228 226 242 235 241 242 239 246 238 237 236 245 253 250 256 271 281 290 288 292 290 291 291 297 299 302 306 310 308 307 310 308 305
209 207 206 205 196 196 216 218 219 220 221 232 234 235 242 242 247 236 226 226 226 235 235 237 252 269 278 284 288 291 285 288 285 273 272 283 302 303 302 309 311 301 301 300
202 199 198 199 196 208 211 212 215 217 222 225 227 234 238 241 228 210 212 215 226 229 232 249 262 274 282 288 289 290 290 285 270 267 264 292 285 297 311 313 319 316 321 304
196 194 193 196 206 207 206 211 214 221 225 231 227 230 227 222 202 206 204 220 211 226 244 257 268 277 282 290 291 289 277 276 284 290 285 279 275 286 309 317 321 319 320 322
181 179 182 184 190 194 207 212 222 222 225 229 221 214 208 225 208 198 195 203 219 236 247 257 266 275 286 293 290 275 258 267 271 278 287 278 276 286 308 316 321 320 325 330
171 173 179 199 198 206 217 217 222 226 219 222 218 215 180 173 182 190 198 215 226 234 244 253 266 282 294 291 289 266 244 252 265 280 290 283 279 286 297 308 309 306 311 322
173 183 184 192 204 210 218 215 211 210 212 194 186 173 178 179 178 191 207 218 226 235 243 258 277 287 300 300 288 264 243 247 272 288 297 292 283 285 293 293 299 300 309 315
184 196 207 214 209 201 205 206 201 196 184 178 169 169 169 178 189 198 206 216 225 237 253 264 283 303 311 308 290 265 240 247 263 284 295 292 281 288 281 281 288 287 298 310
192 193 196 195 195 198 200 200 192 178 176 171 164 164 180 180 192 197 203 215 230 247 264 286 304 311 319 314 294 263 244 239 254 272 297 295 290 282 275 272 268 278 290 305
187 183 185 188 188 188 183 177 168 165 165 163 169 172 179 190 192 199 210 226 243 258 278 299 311 317 322 316 298 261 247 239 246 261 289 313 294 286 282 283 273 279 288 296
179 177 172 171 169 172 171 167 165 161 164 166 174 180 187 190 199 209 221 236 253 277 294 308 318 321 324 323 308 272 245 238 242 251 267 293 304 287 278 281 285 288 288 290
168 162 158 163 163 163 162 162 165 163 165 173 183 187 191 199 208 221 236 248 265 292 307 317 322 325 331 335 327 307 249 235 238 247 260 280 294 295 290 283 284 284 286 290
157 155 161 162 163 164 165 166 168 169 177 182 187 190 195 201 212 225 240 256 280 299 311 320 324 329 333 335 329 310 253 236 237 249 260 272 282 290 296 292 288 286 287 291
156 160 166 168 168 169 165 168 174 182 187 188 187 190 198 208 218 231 246 267 283 298 310 319 325 332 333 330 316 304 269 246 245 253 262 270 277 283 293 297 294 293 294 294
164 167 168 170 169 169 172 176 182 187 189 188 192 197 203 215 228 240 259 272 287 298 311 323 326 329 329 320 317 294 274 264 259 261 265 270 277 285 292 296 297 300 303 298
173 172 173 174 174 177 182 187 190 188 192 194 194 202 216 230 236 249 262 278 292 303 311 318 319 325 324 309 298 297 285 275 268 265 267 274 280 284 288 290 291 291 291 291
178 177 179 179 179 183 191 192 195 197 200 198 204 219 228 235 245 257 269 282 294 300 306 313 318 323 320 306 291 272 280 275 273 273 276 280 286 291 291 291 289 289 289 289
183 185 184 186 192 193 196 198 199 203 205 208 220 230 234 239 249 262 277 287 294 298 307 314 316 321 316 303 291 284 279 268 269 273 280 287 293 297 297 296 294 292 292 292
188 194 197 196 200 206 209 204 204 205 208 216 227 239 246 250 259 271 284 290 294 301 309 313 318 319 314 308 296 285 273 265 269 276 281 287 293 296 300 303 301 298 296 295
197 199 207 208 216 215 213 212 209 211 213 220 231 240 250 259 269 280 288 290 295 301 307 313 319 315 319 317 307 305 297 283 271 271 276 284 293 298 300 302 303 301 297 295
200 208 212 210 212 219 220 222 220 218 218 225 234 242 254 267 280 282 283 288 294 302 308 314 314 304 317 310 286 298 294 298 301 297 297 297 300 297 298 298 299 302 302 300
201 208 212 211 211 214 218 220 222 223 223 227 234 246 259 272 275 276 279 286 294 301 308 310 301 292 301 308 309 295 289 288 290 292 291 292 292 294 296 298 301 305 306 304
Height
5501 5508 5514 5523 5533 5544 5547 5553 5560 5570 5576 5581 5589 5597 5605 5610 5612 5616 5620 5623 5625 5629 5630 5631 5632 5632 5632 5632 5631 5630 5629 5626 5624 5621 5617 5613 5608 5603 5599 5595 5593 5587 5584 5587
5490 5495 5501 5511 5520 5531 5540 5538 5549 5556 5564 5570 5580 5584 5591 5598 5602 5605 5609 5613 5615 5619 5620 5622 5623 5622 5623 5623 5622 5620 5620 5617 5614 5612 5609 5603 5599 5595 5592 5590 5586 5583 5580 5582
5478 5484 5492 5499 5507 5520 5530 5536 5533 5545 5555 5562 5570 5574 5581 5587 5591 5595 5599 5602 5606 5610 5611 5611 5613 5613 5614 5614 5613 5612 5611 5609 5606 5603 5599 5595 5593 5588 5585 5583 5581 5578 5577 5576
5468 5474 5481 5488 5497 5508 5518 5524 5527 5541 5549 5556 5562 5566 5573 5577 5582 5587 5589 5593 5598 5601 5601 5602 5604 5605 5606 5606 5606 5605 5602 5601 5596 5593 5590 5589 5587 5585 5581 5578 5576 5573 5572 5569
5458 5464 5472 5478 5489 5500 5507 5518 5525 5532 5541 5547 5552 5558 5564 5569 5573 5578 5582 5585 5589 5591 5594 5596 5596 5599 5599 5600 5599 5595 5596 5591 5588 5585 5584 5583 5582 5580 5578 5575 5572 5570 5567 5564
5449 5456 5464 5473 5484 5495 5501 5510 5517 5525 5531 5538 5545 5550 5556 5560 5564 5569 5572 5576 5580 5583 5586 5589 5591 5592 5593 5593 5591 5591 5587 5584 5583 5580 5579 5579 5580 5576 5574 5572 5569 5566 5563 5560
5442 5449 5458 5468 5479 5488 5496 5505 5512 5519 5527 5532 5539 5544 5549 5552 5556 5560 5564 5568 5573 5579 5580 5582 5585 5586 5586 5586 5586 5583 5581 5579 5577 5576 5576 5577 5574 5572 5570 5567 5564 5560 5556 5553
5435 5444 5454 5464 5473 5483 5491 5498 5505 5513 5521 5527 5532 5537 5541 5544 5547 5552 5557 5563 5568 5572 5575 5578 5579 5580 5581 5580 5579 5577 5574 5573 5572 5572 5572 5572 5570 5568 5566 5563 5561 5555 5551 5548
5429 5439 5450 5461 5470 5478 5486 5494 5502 5509 5515 5521 5525 5530 5535 5538 5542 5548 5553 5560 5563 5567 5571 5573 5573 5575 5575 5575 5573 5571 5569 5568 5569 5568 5567 5567 5565 5564 5561 5558 5555 5551 5548 5544
5426 5437 5448 5458 5467 5475 5483 5490 5497 5503 5508 5513 5517 5523 5528 5532 5538 5546 5552 5556 5560 5564 5566 5567 5569 5571 5570 5569 5567 5566 5565 5565 5565 5565 5564 5562 5560 5559 5557 5555 5554 5548 5545 5542
5427 5438 5447 5456 5465 5472 5479 5485 5490 5496 5502 5508 5512 5518 5525 5533 5538 5545 5549 5554 5557 5560 5562 5564 5565 5565 5565 5564 5562 5561 5562 5562 5562 5561 5560 5559 5556 5554 5553 5552 5549 5546 5543 5541
5428 5438 5447 5455 5462 5468 5474 5479 5484 5490 5497 5503 5509 5517 5523 5529 5536 5542 5547 5551 5554 5557 5559 5560 5560 5561 5560 5558 5557 5556 5558 5558 5558 5558 5556 5553 5551 5549 5548 5547 5546 5543 5541 5539
5427 5435 5443 5450 5457 5463 5469 5474 5480 5486 5492 5500 5508 5516 5523 5530 5535 5540 5545 5549 5551 5553 5555 5556 5557 5556 5554 5553 5552 5551 5552 5553 5554 5554 5552 5549 5547 5545 5544 5543 5542 5540 5538 5536
5424 5431 5438 5445 5452 5458 5464 5469 5477 5485 5494 5500 5507 5515 5523 5528 5534 5539 5543 5545 5547 5549 5551 5552 5551 5551 5549 5547 5547 5547 5548 5549 5549 5549 5548 5545 5543 5541 5540 5540 5538 5537 5535 5533
5421 5428 5434 5441 5448 5454 5462 5470 5478 5486 5497 5504 5510 5516 5522 5528 5533 5537 5540 5542 5545 5547 5547 5547 5547 5546 5545 5542 5541 5541 5541 5543 5545 5544 5544 5542 5540 5538 5536 5535 5534 5532 5531 5529
5420 5426 5433 5439 5447 5455 5463 5471 5479 5488 5498 5503 5510 5516 5521 5526 5530 5534 5537 5540 5542 5544 5544 5544 5543 5542 5541 5538 5534 5532 5533 5536 5538 5539 5539 5538 5536 5534 5533 5531 5529 5528 5526 5525
5421 5428 5435 5443 5451 5459 5469 5479 5486 5491 5498 5505 5511 5516 5520 5525 5529 5532 5535 5537 5539 5540 5540 5540 5539 5537 5536 5532 5529 5526 5526 5529 5532 5534 5534 5534 5532 5530 5528 5527 5525 5524 5522 5520
5422 5430 5439 5447 5454 5462 5470 5478 5486 5494 5499 5505 5510 5515 5520 5524 5527 5530 5533 5534 5535 5536 5537 5536 5535 5534 5531 5528 5526 5523 5523 5525 5527 5528 5529 5529 5528 5526 5524 5523 5521 5519 5518 5515
5424 5432 5441 5449 5457 5465 5472 5480 5487 5493 5501 5505 5510 5515 5519 5522 5525 5528 5531 5532 5533 5534 5534 5533 5531 5529 5527 5525 5523 5521 5521 5522 5522 5523 5524 5524 5523 5522 5520 5518 5517 5515 5513 5510
5428 5436 5444 5451 5459 5467 5474 5480 5486 5493 5499 5503 5508 5513 5517 5521 5523 5526 5529 5529 5530 5530 5531 5529 5526 5525 5524 5521 5520 5519 5518 5518 5518 5518 5519 5518 5518 5517 5515 5513 5511 5509 5507 5505
5431 5439 5447 5454 5461 5468 5475 5480 5486 5491 5497 5502 5507 5511 5515 5518 5521 5523 5525 5526 5527 5526 5527 5525 5523 5521 5520 5518 5516 5515 5514 5514 5513 5513 5513 5513 5512 5511 5510 5508 5506 5504 5501 5499
5434 5442 5449 5455 5461 5468 5474 5479 5485 5491 5497 5501 5506 5510 5513 5517 5519 5520 5522 5523 5523 5522 5522 5521 5519 5517 5515 5513 5512 5511 5510 5510 5509 5509 5508 5508 5507 5505 5503 5501 5499 5497 5494 5492
5434 5441 5447 5454 5460 5465 5470 5476 5484 5490 5495 5500 5505 5508 5511 5513 5516 5517 5518 5518 5518 5518 5517 5515 5514 5512 5509 5507 5506 5505 5504 5503 5503 5503 5503 5502 5500 5498 5496 5493 5491 5489 5486 5483
5433 5439 5445 5452 5458 5464 5472 5480 5485 5491 5495 5498 5502 5505 5508 5510 5512 5513 5514 5514 5514 5513 5512 5510 5508 5505 5503 5501 5499 5497 5497 5497 5497 5497 5496 5495 5493 5491 5489 5486 5483 5480 5477 5474
5434 5440 5444 5451 5459 5465 5472 5478 5483 5487 5491 5495 5498 5502 5504 5506 5508 5509 5509 5509 5509 5508 5507 5505 5502 5500 5497 5495 5493 5492 5492 5492 5491 5491 5490 5489 5487 5484 5482 5479 5475 5472 5468 5465
5433 5439 5443 5451 5458 5464 5470 5475 5480 5484 5488 5491 5495 5497 5500 5502 5504 5505 5504 5504 5503 5503 5501 5499 5497 5495 5493 5492 5491 5490 5489 5488 5487 5486 5484 5482 5480 5477 5474 5471 5467 5463 5459 5455
5431 5436 5443 5449 5455 5461 5466 5471 5476 5480 5484 5487 5490 5493 5496 5498 5499 5499 5499 5499 5499 5497 5496 5493 5492 5491 5489 5488 5487 5485 5484 5482 5481 5479 5477 5474 5471 5468 5465 5461 5458 5453 5449 5445